Location: Carroll
(32.4774°N, 95.5202°W)
Time: 13:59:18
(UTC+02:00)

Daily predictions for brighter satellites

Satellite Brightness Start Highest point End
(mag) Time Altitude Azimuth Time Altitude Azimuth Time Altitude Azimuth
Resurs 1-4 Rocket 4.1 12:00:09 10° NW 12:01:46 13° NW 12:01:46 13° NW
Hubble Space Telescope 1.3 12:10:33 41° S 12:10:33 41° S 12:14:12 10° ESE
Cosmos 1833 Rocket 3.1 12:11:23 38° W 12:12:39 44° WNW 12:18:02 10° N
ATLAS 5 CENTAUR R/B 3.9 12:13:04 10° SSE 12:16:26 21° ESE 12:19:57 10° ENE
PSLV R/B 3.4 12:16:48 10° N 12:21:08 86° WNW 12:23:30 26° SSW
IRS-1C Rocket 4.5 12:18:20 10° NNE 12:23:33 64° ESE 12:28:45 10° S
Aurora 2 Rocket 3.9 12:25:06 15° SSE 12:25:06 15° SSE 12:26:47 10° SE
Lacrosse 5 1.7 12:21:17 10° NW 12:26:22 79° SW 12:31:24 10° SSE
Timation 2 Rocket 3.8 12:24:20 23° SSW 12:28:16 78° WNW 12:34:24 10° NNE
NOSS 7 (E) 4.4 12:30:58 30° SSW 12:32:40 84° ESE 12:35:59 10° NNE
OAO 2 Rocket 3.4 12:30:39 26° W 12:33:22 70° N 12:38:20 10° ENE
Cosmos 1980 Rocket 2.9 12:30:13 10° N 12:35:44 56° ENE 12:41:14 10° SE
OAO 1 4.5 12:31:51 20° WNW 12:35:45 78° SSW 12:41:16 10° ESE
Cosmos 1455 3.4 12:36:57 24° WNW 12:36:57 24° WNW 12:39:53 10° NNW
Atlas 2A Centaur Rocket 4.2 12:33:13 22° SW 12:37:37 59° SSE 13:15:08 10° E
Cosmos 2233 Rocket 3.9 12:33:18 10° SSW 12:39:23 69° W 12:45:30 10° N
Cosmos 482 Debris 4.1 12:40:01 24° WNW 12:41:39 54° SW 12:46:18 10° SSE
CZ-4B R/B 4.4 12:39:21 10° NNE 12:42:59 52° E 12:46:32 10° S
Meteor 2-12 Rocket 4.4 12:37:47 10° SSW 12:43:45 62° W 12:49:46 10° N
NOSS 7 (D) 4.4 12:41:45 22° SSW 12:44:05 82° WNW 12:47:26 10° NNE
PKM 4.1 12:41:54 16° SSW 12:44:16 45° SE 12:46:52 10° NE
CZ-4B R/B 3.7 12:40:19 10° N 12:44:33 41° WNW 12:47:25 19° SW
ADEOS II 2.8 12:41:40 10° N 12:46:22 34° WNW 12:49:31 18° SW
ATLAS 2A CENTAUR R/B 3.8 12:45:36 15° SSW 12:46:26 16° S 12:49:33 10° SE
Cosmos 2278 4.4 12:42:40 10° NW 12:47:32 31° WSW 12:52:24 10° SSW
Cosmos 2346 Rocket 4.4 12:41:50 10° N 12:48:07 79° W 12:54:20 10° S
Cosmos 1697 Rocket 2.7 12:44:05 10° NNW 12:49:38 60° WSW 12:55:11 10° S
Cosmos 1707 Rocket 3.7 12:47:27 12° SSW 12:51:25 50° W 12:55:41 10° N
Meteor PRIRODA 3.6 12:56:56 10° N 13:00:31 59° WNW 13:04:05 10° SSW
Okean O Rocket 2.6 13:01:17 10° NNW 13:05:03 28° WNW 13:08:41 11° SW
Cosmos 2082 Rocket 4.0 13:04:04 11° W 13:06:51 15° WNW 13:09:55 10° NNW
Cosmos 1733 Rocket 4.2 13:03:21 10° N 13:07:41 49° E 13:11:58 10° SSE
Meteor 2-10 Rocket 3.9 13:03:07 10° S 13:08:52 86° E 13:14:43 10° N
Okean-O 3.1 13:04:42 10° NNE 13:09:07 66° E 13:13:30 10° S
ATLAS 2AS CENTAUR R/B 3.4 13:02:12 10° NNW 13:10:04 67° ENE 13:17:13 10° SE
PSLV R/B 3.9 13:13:13 10° W 13:16:10 33° SW 13:19:08 10° SSE
CZ-2C R/B 3.6 13:12:29 10° S 13:16:52 65° WSW 13:21:19 10° NNW
Cosmos 1862 3.3 13:14:16 10° N 13:18:19 76° W 13:22:23 10° S
Cosmos 1371 Rocket 4.3 13:13:27 10° NNW 13:18:28 46° WSW 13:23:29 10° S
Cosmos 1408 3.5 13:16:44 10° NNW 13:19:49 27° W 13:22:53 10° SSW
BREEZE M DEB (TANK) 3.6 13:17:46 10° WNW 13:20:04 29° SW 13:24:44 10° SSE
NOSS 3-3 (C) 4.5 13:14:57 10° SW 13:20:42 43° NW 13:26:52 10° NNE
Cosmos 1346 Rocket 2.9 13:18:36 10° S 13:22:31 85° E 13:26:32 10° N
Tiangong 2 3.8 13:21:23 10° NNW 13:23:00 13° N 13:24:38 10° NNE
Cosmos 921 Rocket 3.8 13:18:53 10° N 13:23:12 59° ENE 13:27:34 10° SSE
CZ-3C R/B 3.5 13:23:38 10° S 13:24:41 11° SSE 13:26:04 10° SSE
NOSS 2-1 (C) 4.3 13:22:07 10° WSW 13:25:25 29° NW 13:28:54 10° N
Cosmos 1862 Rocket 3.6 13:21:02 10° S 13:25:30 75° W 13:30:00 10° N
NOSS 2-1 (D) 4.3 13:22:15 10° WSW 13:25:32 28° NW 13:28:59 10° N
CZ-4B R/B 4.2 13:24:05 10° NNW 13:28:34 27° WNW 13:32:59 10° SW
USA 234 3.3 13:27:24 10° NE 13:33:58 84° NW 13:40:31 10° SW
